Probability
16 32 58 74 71 74 77 71 81 81 84 84 84 81 81 81 87 84 81 84 77 81 84 77 74 81 74 71 71 68 71 74 74 71 68 68 68 71 71 71 65 61 77
23 45 81 81 71 71 74 74 74 77 87 81 77 77 84 84 87 84 84 84 77 81 84 74 74 77 77 74 71 68 74 74 81 71 74 65 65 65 71 68 55 58 68
39 55 68 84 77 71 77 74 87 81 87 90 81 84 87 90 90 81 84 84 84 81 74 74 84 77 84 81 61 65 77 81 81 71 65 48 52 61 55 58 55 68 68
45 55 68 77 77 68 71 81 84 87 81 87 84 84 84 87 90 77 81 84 74 77 71 74 74 74 65 68 65 65 68 71 61 58 26 35 39 61 68 65 65 68 71
39 45 68 77 81 74 74 84 87 81 84 87 74 77 81 87 87 84 81 77 74 68 74 77 77 77 74 71 68 71 68 61 48 32 19 26 42 68 71 61 71 71 68
35 45 71 84 81 81 81 77 81 77 74 81 81 81 84 87 90 87 84 74 74 68 71 77 71 65 68 65 65 65 61 55 26 16 16 26 42 74 68 65 61 61 65
32 39 61 84 87 87 84 81 74 74 77 77 81 81 90 90 90 81 81 81 68 71 71 74 71 52 48 42 52 52 52 42 6 6 16 23 39 71 68 74 77 74 68
35 42 61 81 84 87 81 71 71 71 71 71 84 84 84 87 81 81 74 77 65 71 65 61 55 52 55 55 45 52 45 39 13 10 16 19 55 61 77 77 77 68 61
32 29 39 52 55 77 81 77 81 74 74 74 81 81 81 71 81 81 77 68 58 68 65 58 55 48 52 52 52 48 42 35 6 3 3 13 55 68 71 68 68 58 55
16 23 32 39 45 45 61 74 81 81 81 81 77 81 77 65 55 65 74 71 48 52 45 42 48 42 48 45 48 52 45 32 6 6 10 13 55 55 48 58 52 61 61
16 13 10 16 19 29 45 61 65 71 74 68 61 74 55 29 32 42 58 58 45 45 45 48 48 45 52 48 61 55 32 16 10 6 13 26 48 55 55 52 58 65 58
10 10 10 13 10 16 26 35 39 39 26 35 29 26 19 3 0 29 58 65 58 45 48 45 39 32 26 16 19 23 10 6 3 6 16 39 58 52 52 58 58 61 58
6 6 6 3 6 6 10 13 13 10 10 6 0 0 0 0 0 3 6 26 29 39 19 23 23 19 13 13 10 6 10 3 3 3 19 45 55 55 55 58 58 65 61
6 6 6 3 3 3 3 6 0 3 3 0 0 0 0 0 0 0 0 3 10 13 13 13 6 10 6 6 6 10 3 10 6 6 23 39 55 61 58 58 65 65 65
6 10 10 6 3 0 3 3 3 0 0 0 0 0 0 0 0 0 0 0 0 3 3 3 3 6 3 3 6 6 6 6 6 6 13 32 58 61 52 61 65 61 58
6 10 6 6 0 0 0 0 3 0 0 0 0 0 3 0 0 0 0 0 0 0 0 3 0 0 0 6 3 10 10 6 6 3 10 13 48 68 55 61 65 55 52
3 6 0 0 0 0 0 0 3 0 0 0 0 0 3 0 0 0 0 0 0 0 3 3 3 0 0 0 3 3 3 6 6 6 10 10 16 45 71 71 71 68 58
3 6 3 10 3 0 0 0 0 0 0 0 0 3 6 0 0 0 0 0 0 0 0 3 3 3 0 0 3 0 0 6 6 6 6 6 6 13 39 68 74 74 74
6 6 6 6 3 0 0 0 3 3 3 3 3 6 6 3 3 3 3 3 3 3 6 6 6 3 3 3 0 0 0 0 3 3 10 3 3 3 6 32 61 68 61
6 6 6 10 10 0 3 3 6 0 0 0 3 3 10 6 3 3 3 3 0 0 0 0 6 6 0 0 0 0 0 0 0 0 0 0 3 3 0 0 13 32 45
6 6 6 10 6 3 3 3 6 3 6 6 3 6 6 6 10 3 3 0 0 0 0 0 0 0 0 0 0 0 0 0 0 0 0 3 6 3 6 3 6 6 13
16 10 10 13 13 6 6 6 6 6 10 6 6 3 3 6 6 10 6 0 0 0 0 0 0 0 0 0 0 0 0 0 0 0 0 0 0 3 3 6 10 10 6
13 16 19 13 13 13 10 10 10 6 6 6 6 6 6 10 6 6 6 3 0 0 0 0 0 0 0 0 0 0 0 0 0 0 0 0 0 0 0 3 3 10 16
19 19 19 19 16 16 16 19 16 13 13 10 6 6 10 6 10 6 6 3 3 0 0 0 0 0 0 0 0 0 0 0 0 0 0 0 0 0 0 0 0 10 10
26 23 26 16 16 16 16 16 16 13 10 6 6 3 3 6 3 6 3 3 3 3 3 3 0 0 0 0 0 0 0 0 0 0 0 0 0 3 0 0 3 3 3
23 32 26 23 29 19 23 23 16 16 13 13 6 6 3 3 3 10 6 3 3 0 0 3 3 0 0 3 3 3 3 0 0 0 0 0 0 3 0 0 0 3 3
Height
5856 5856 5857 5857 5857 5858 5858 5858 5859 5860 5861 5862 5863 5864 5865 5866 5867 5869 5869 5870 5871 5871 5872 5872 5873 5874 5874 5875 5876 5878 5880 5881 5883 5884 5885 5886 5887 5888 5888 5889 5890 5890 5891
5857 5857 5857 5858 5858 5858 5859 5859 5860 5860 5861 5863 5864 5865 5866 5867 5868 5869 5870 5871 5871 5872 5873 5873 5874 5874 5874 5875 5877 5879 5881 5882 5883 5885 5886 5887 5887 5888 5889 5890 5890 5891 5892
5857 5858 5858 5858 5859 5859 5859 5860 5861 5861 5862 5863 5864 5866 5867 5868 5869 5870 5870 5871 5872 5873 5873 5874 5874 5874 5874 5876 5877 5880 5882 5883 5884 5885 5886 5887 5888 5889 5890 5891 5891 5892 5892
5858 5858 5858 5859 5859 5859 5860 5861 5861 5862 5863 5864 5865 5866 5867 5868 5869 5870 5871 5872 5873 5873 5874 5875 5875 5875 5876 5878 5879 5881 5882 5884 5885 5886 5887 5888 5889 5890 5891 5891 5892 5892 5893
5859 5859 5859 5859 5860 5860 5861 5861 5862 5863 5864 5865 5866 5867 5868 5869 5869 5871 5871 5872 5873 5874 5874 5875 5876 5877 5878 5879 5880 5882 5883 5884 5885 5886 5887 5889 5890 5890 5891 5892 5892 5893 5894
5861 5861 5860 5860 5861 5861 5861 5862 5862 5863 5864 5865 5866 5867 5868 5869 5870 5871 5872 5873 5873 5874 5875 5876 5877 5877 5878 5879 5881 5882 5883 5885 5886 5887 5888 5889 5890 5891 5891 5892 5893 5894 5894
5862 5862 5861 5862 5862 5862 5862 5862 5862 5863 5863 5865 5867 5868 5869 5870 5871 5872 5872 5873 5874 5875 5876 5876 5877 5878 5879 5880 5881 5882 5883 5885 5886 5887 5888 5889 5890 5891 5892 5893 5893 5894 5895
5864 5863 5863 5863 5863 5863 5862 5862 5862 5862 5863 5865 5867 5868 5869 5871 5872 5872 5873 5874 5875 5876 5876 5877 5878 5879 5880 5880 5882 5883 5884 5885 5886 5888 5889 5890 5891 5891 5892 5893 5894 5894 5895
5865 5865 5865 5864 5864 5864 5864 5863 5862 5862 5863 5865 5867 5869 5870 5871 5872 5873 5874 5875 5875 5876 5877 5878 5879 5880 5881 5881 5882 5883 5884 5885 5887 5888 5889 5890 5891 5891 5892 5893 5894 5894 5895
5867 5867 5866 5866 5866 5866 5865 5865 5864 5864 5865 5867 5869 5870 5871 5872 5873 5874 5875 5875 5876 5877 5878 5878 5879 5880 5880 5881 5882 5883 5884 5885 5887 5888 5889 5890 5890 5891 5892 5893 5894 5894 5895
5868 5868 5868 5868 5868 5867 5867 5867 5867 5867 5868 5869 5871 5872 5872 5873 5874 5875 5876 5876 5877 5877 5878 5879 5879 5879 5881 5882 5882 5883 5884 5885 5886 5887 5888 5889 5890 5891 5892 5893 5893 5894 5895
5870 5870 5870 5869 5869 5869 5869 5869 5870 5870 5871 5872 5872 5873 5874 5874 5875 5876 5876 5877 5878 5878 5879 5879 5879 5880 5881 5882 5882 5883 5884 5885 5886 5887 5888 5889 5889 5890 5891 5892 5893 5893 5894
5872 5872 5872 5871 5871 5871 5871 5872 5872 5872 5873 5873 5874 5874 5875 5875 5876 5877 5877 5878 5878 5879 5879 5880 5880 5881 5881 5882 5883 5883 5884 5885 5886 5887 5887 5888 5889 5890 5891 5891 5892 5893 5894
5874 5873 5873 5873 5873 5873 5873 5874 5874 5874 5874 5875 5875 5876 5876 5877 5877 5878 5878 5878 5879 5879 5880 5880 5881 5881 5882 5882 5883 5883 5884 5885 5885 5886 5886 5887 5888 5889 5890 5891 5892 5892 5893
5876 5875 5875 5875 5875 5875 5875 5875 5875 5876 5876 5876 5877 5877 5877 5878 5878 5878 5878 5879 5879 5880 5880 5880 5881 5881 5882 5882 5883 5883 5884 5884 5885 5885 5886 5887 5888 5888 5889 5890 5891 5891 5892
5878 5877 5877 5877 5876 5876 5876 5877 5877 5877 5877 5877 5877 5878 5878 5878 5878 5878 5879 5879 5879 5880 5880 5880 5880 5881 5882 5882 5883 5883 5884 5884 5884 5885 5885 5886 5887 5887 5888 5889 5890 5890 5890
5880 5879 5879 5878 5878 5878 5878 5878 5878 5878 5878 5878 5878 5878 5878 5878 5878 5878 5879 5879 5879 5879 5880 5880 5880 5881 5881 5882 5882 5882 5883 5883 5884 5884 5884 5885 5885 5886 5887 5887 5888 5888 5888
5882 5881 5881 5880 5880 5880 5880 5879 5879 5879 5879 5879 5879 5879 5879 5879 5878 5878 5878 5878 5879 5879 5879 5880 5880 5880 5881 5881 5881 5881 5882 5882 5882 5883 5883 5883 5884 5884 5885 5886 5886 5887 5887
5884 5883 5883 5882 5882 5881 5881 5881 5880 5880 5880 5880 5880 5879 5879 5879 5879 5878 5878 5878 5878 5878 5878 5879 5879 5879 5880 5880 5880 5880 5880 5881 5881 5881 5881 5882 5882 5882 5883 5883 5884 5884 5885
5887 5886 5885 5884 5884 5883 5882 5882 5882 5881 5881 5880 5880 5880 5880 5879 5879 5878 5878 5878 5878 5878 5878 5878 5878 5879 5879 5879 5879 5879 5879 5879 5879 5880 5880 5880 5880 5880 5880 5881 5881 5882 5882
5889 5888 5887 5886 5885 5884 5884 5883 5882 5882 5881 5881 5880 5880 5880 5879 5878 5878 5878 5877 5877 5877 5877 5877 5877 5877 5877 5877 5877 5877 5877 5877 5878 5877 5877 5878 5878 5878 5878 5878 5878 5878 5879
5891 5890 5889 5887 5886 5885 5885 5884 5883 5882 5881 5881 5880 5880 5879 5878 5878 5877 5876 5876 5876 5875 5875 5875 5875 5875 5875 5875 5875 5875 5875 5876 5875 5875 5875 5875 5875 5875 5875 5875 5875 5875 5875
5892 5891 5890 5889 5888 5887 5886 5884 5884 5882 5881 5880 5880 5880 5879 5878 5877 5876 5875 5875 5874 5874 5873 5873 5873 5873 5873 5873 5872 5873 5873 5873 5872 5873 5872 5872 5872 5872 5872 5872 5871 5871 5871
5894 5892 5891 5890 5889 5887 5886 5885 5884 5883 5882 5881 5880 5879 5878 5877 5875 5875 5874 5873 5873 5872 5871 5871 5871 5871 5870 5870 5870 5869 5869 5869 5869 5869 5869 5869 5868 5868 5868 5867 5867 5867 5867
5895 5894 5892 5891 5889 5888 5887 5886 5884 5883 5882 5881 5880 5879 5877 5876 5874 5873 5872 5872 5871 5870 5869 5869 5868 5868 5867 5867 5867 5866 5866 5865 5865 5865 5865 5865 5864 5864 5863 5863 5862 5862 5862
5895 5894 5893 5892 5890 5889 5887 5886 5885 5883 5882 5881 5879 5878 5877 5875 5874 5872 5871 5870 5869 5868 5867 5867 5866 5865 5865 5864 5863 5863 5862 5862 5861 5861 5861 5860 5860 5859 5858 5858 5857 5857 5856
Wind_Speed
4 4 4 4 5 5 5 6 7 7 7 7 6 6 6 6 5 5 5 5 5 6 6 5 6 6 7 8 8 9 10 9 9 9 8 7 7 7 6 6 6 6 6
5 4 5 5 6 6 6 6 7 7 7 7 7 7 6 5 5 4 4 5 5 5 5 5 5 5 6 8 9 9 9 9 9 8 8 7 6 7 7 6 6 6 6
6 5 6 6 6 6 7 6 7 7 7 7 7 6 6 5 5 5 5 5 5 4 5 5 5 5 7 8 8 9 8 9 9 8 7 7 6 6 6 5 6 6 5
7 7 7 7 7 7 7 7 6 7 7 6 6 6 6 5 5 5 5 5 5 4 5 4 4 5 7 8 8 8 8 8 8 8 7 7 6 5 5 4 4 5 5
8 7 7 7 7 7 7 7 6 7 7 7 6 6 6 5 5 5 5 5 5 4 4 4 4 5 7 7 7 8 8 8 7 7 7 6 6 5 4 4 4 4 4
8 8 8 8 8 7 7 7 6 6 7 6 6 6 6 6 5 5 5 5 4 4 4 4 4 5 7 7 7 7 7 7 7 7 7 6 6 5 4 4 4 4 4
8 9 9 9 8 7 7 7 6 5 6 6 6 6 7 6 6 5 5 5 4 4 4 4 5 5 6 6 6 7 7 7 7 7 7 6 6 5 4 4 4 4 4
9 9 9 9 8 8 7 6 5 5 6 7 7 7 7 7 6 5 5 4 4 4 4 4 5 6 6 6 6 6 6 6 6 6 6 6 5 5 4 4 4 4 5
10 10 10 9 8 8 8 7 7 7 7 8 7 7 7 6 6 5 5 4 4 4 4 4 5 5 5 6 6 6 6 7 6 6 5 5 5 4 4 4 4 4 5
11 10 10 9 9 9 9 9 9 9 9 9 8 6 6 6 6 5 5 4 3 3 3 4 4 4 5 5 5 6 6 6 7 6 5 4 4 4 4 4 4 5 5
11 10 10 9 9 9 10 10 10 10 9 9 7 6 6 6 6 5 4 4 4 4 4 3 3 4 4 4 4 6 6 6 6 6 6 5 5 5 5 5 5 5 5
10 10 10 10 10 10 10 9 9 9 9 8 7 7 6 6 6 5 4 4 4 4 3 3 4 3 3 3 4 5 6 6 5 6 6 6 6 5 6 6 6 6 5
10 10 10 10 10 9 9 9 9 8 8 7 7 6 6 5 5 4 4 4 4 3 3 3 3 3 2 2 3 4 5 5 5 5 5 6 6 6 6 7 6 5 6
10 10 10 10 9 9 8 8 7 7 7 6 6 5 5 4 4 3 3 3 2 2 2 2 2 3 2 2 2 3 4 4 5 5 4 6 7 7 7 7 7 6 6
11 10 9 9 9 9 8 7 7 7 6 6 5 4 4 3 2 2 2 2 1 1 1 1 2 3 3 3 3 3 4 4 5 6 6 6 6 7 7 8 7 7 7
11 10 10 9 9 9 8 7 7 6 6 5 5 4 3 2 1 1 1 1 2 2 2 2 3 3 4 4 4 4 4 5 5 6 6 7 7 7 8 8 8 8 8
11 11 10 9 9 8 7 7 6 6 5 5 4 4 3 3 1 1 1 1 2 2 2 3 3 3 4 4 5 5 5 5 6 6 7 8 8 9 9 9 10 10 9
12 11 11 10 9 8 8 7 6 6 5 4 4 3 3 3 2 2 1 1 2 3 3 4 4 4 5 5 5 6 7 7 7 7 7 8 8 9 10 10 11 11 10
12 12 11 10 9 9 8 7 7 6 5 5 4 3 3 2 2 2 2 2 2 3 4 5 5 5 5 6 7 7 8 8 8 8 9 9 10 10 11 11 12 13 13
12 12 11 10 10 9 8 7 6 6 4 4 3 3 3 3 2 2 3 3 4 4 5 5 6 6 7 7 8 8 8 9 9 10 10 11 11 12 12 13 13 14 14
12 11 11 10 9 8 8 7 6 5 4 4 3 3 4 4 3 4 4 4 4 4 5 7 7 8 8 9 9 9 9 9 10 10 11 11 12 13 13 13 14 15 15
12 11 10 9 9 9 8 7 6 5 5 4 4 4 4 5 5 5 5 5 6 6 6 7 8 9 10 10 10 10 11 11 12 12 13 13 14 14 15 15 16 16 16
12 11 10 9 9 9 8 7 7 7 7 5 4 4 5 5 5 6 6 6 7 7 7 8 8 9 11 12 12 12 12 12 13 14 14 15 15 16 17 17 17 17 18
11 11 10 10 10 10 9 9 8 7 7 6 6 6 6 6 6 6 7 7 8 8 8 9 9 10 11 12 13 13 13 14 14 15 15 16 16 16 17 18 18 19 20
9 10 10 10 9 9 9 9 9 8 8 8 7 7 8 8 7 7 7 8 8 8 8 9 9 10 11 12 13 13 13 14 15 16 16 17 16 17 18 19 20 20 21
7 8 9 9 9 9 9 9 9 9 9 9 9 9 8 8 8 7 7 8 8 8 9 10 10 11 11 12 13 14 14 14 14 15 16 16 17 18 19 20 20 21 21
Wind_Direction
76 90 100 106 103 103 110 115 118 118 117 118 120 122 120 121 114 117 120 119 121 129 136 129 130 136 145 146 148 147 146 143 143 147 145 139 138 136 135 135 133 136 134
80 100 111 111 103 99 106 111 118 122 121 125 123 122 118 115 115 118 125 125 126 123 130 130 129 134 148 152 151 150 150 149 147 148 148 144 141 140 138 134 138 137 136
84 94 104 103 100 99 103 108 115 121 125 124 122 121 120 119 119 123 129 136 139 134 136 135 138 134 147 151 152 149 151 152 148 148 146 143 140 142 146 140 143 139 134
80 87 95 99 97 98 102 105 109 113 119 123 124 122 119 120 124 128 133 141 139 139 141 142 147 140 148 152 152 152 156 159 151 149 149 146 144 147 150 148 148 143 136
78 83 87 95 97 98 104 107 113 114 117 119 120 118 114 118 124 130 136 140 142 143 146 144 142 148 157 156 160 163 166 162 157 157 157 156 154 156 156 157 155 151 146
81 85 86 91 98 100 106 110 117 116 118 116 116 116 115 114 113 114 125 134 137 141 149 152 150 153 162 164 165 166 173 173 170 166 164 165 163 158 158 158 159 161 160
80 83 83 84 90 93 102 112 112 114 123 123 120 119 119 118 115 110 116 122 126 127 139 156 162 158 165 170 170 174 175 174 176 174 171 170 166 161 164 167 165 166 169
78 80 84 85 91 90 92 99 115 124 130 130 127 122 117 115 114 114 114 117 123 130 134 155 161 160 162 168 174 175 178 178 175 176 179 177 172 165 165 174 174 178 184
76 77 78 82 88 88 90 95 106 117 124 127 124 122 118 115 113 115 118 118 123 133 136 150 156 158 162 170 173 176 178 178 180 180 180 181 182 183 181 182 184 188 190
75 77 77 80 84 86 89 93 99 106 110 115 117 119 116 116 117 119 119 119 126 133 142 155 160 158 156 163 173 177 178 182 185 186 188 185 188 194 196 202 199 200 196
73 75 77 78 82 87 92 96 98 102 106 107 108 110 112 115 117 120 122 123 121 130 141 154 170 161 162 168 176 176 178 185 190 192 190 189 196 202 208 214 209 205 201
69 72 73 75 81 85 92 97 99 101 102 103 104 105 108 113 117 117 120 126 132 140 150 140 164 171 170 174 173 177 176 187 191 194 200 203 205 207 211 216 210 208 203
70 75 75 75 80 83 89 95 99 99 100 101 102 105 107 111 118 121 125 126 127 127 132 138 150 162 168 168 171 171 174 186 192 196 205 210 211 217 221 218 217 212 214
67 71 72 74 77 79 85 93 99 99 95 96 100 102 107 114 123 123 130 131 127 128 131 139 149 165 180 188 193 190 187 205 210 209 213 213 216 223 226 224 224 223 227
65 70 71 72 76 79 83 90 95 96 94 93 97 98 101 108 122 135 142 142 160 175 184 181 189 195 207 221 222 212 214 217 222 223 229 227 228 232 230 230 232 234 239
65 68 71 74 75 77 81 84 90 94 94 93 90 85 85 95 129 161 169 170 199 210 216 221 222 223 231 238 236 234 235 237 239 235 238 237 236 237 235 235 238 245 244
65 68 69 74 75 75 75 77 81 86 93 91 87 80 74 73 81 140 204 230 226 235 240 243 241 240 240 246 247 247 246 248 247 248 247 245 240 239 243 245 246 250 248
63 66 66 69 70 71 68 67 68 74 78 80 82 72 63 50 52 59 12 287 241 243 247 251 249 246 250 255 256 259 257 253 252 257 257 252 247 248 250 250 249 251 252
61 64 67 66 64 62 60 64 64 68 67 65 65 53 41 28 23 3 337 310 274 264 261 261 262 261 259 262 263 265 265 257 257 258 260 259 254 256 256 254 255 257 258
58 60 60 58 58 56 56 58 57 56 55 47 38 24 10 358 348 340 326 300 282 273 270 270 267 266 265 267 269 268 266 261 259 259 261 263 263 265 263 259 258 257 258
53 52 52 50 50 50 49 48 45 41 33 25 13 359 350 342 327 317 309 300 293 286 275 269 269 268 268 270 270 268 267 266 262 264 267 267 267 268 266 265 264 259 259
49 48 46 43 44 42 40 35 27 22 20 13 4 3 350 337 327 320 308 299 292 288 283 276 272 271 273 274 272 272 272 272 269 268 269 269 269 270 271 270 267 264 264
45 43 39 34 32 30 28 27 21 15 11 8 1 353 344 333 322 312 308 301 289 284 282 276 276 276 276 276 277 276 275 275 274 271 272 272 270 270 271 272 270 268 268
39 35 31 28 27 25 25 25 22 20 17 12 359 347 340 337 326 309 302 301 294 286 284 279 275 278 275 275 277 277 274 274 276 274 272 272 272 271 272 273 273 272 270
31 26 22 20 21 20 19 18 17 15 10 2 357 350 343 339 334 322 307 300 298 290 288 286 284 282 280 277 277 278 280 279 276 275 275 276 276 274 274 275 272 273 272
28 23 19 14 14 12 10 9 7 5 3 1 357 352 347 339 333 325 317 311 304 293 289 289 288 287 286 283 280 281 280 279 279 276 275 277 280 279 278 278 275 275 275